Wetterdaten: Samstag, 05.10.2013
Datum Zeit Temperatur Luftfeuchte Luftdruck Regen Wind Richtung Richtung Taupunkt Windchill Windben
05.10.2013 00:00 12,6 C 95 % 1019,2 hPa 0,0 l/m 1,0 km/h (0 Bft) NO 45 11,8 C 13,0 C 2,9 km/h (1 Bft)
05.10.2013 00:05 12,4 C 95 % 1018,9 hPa 0,0 l/m 0,8 km/h (0 Bft) N-NW 337 11,6 C 12,9 C 1,9 km/h (1 Bft)
05.10.2013 00:10 12,4 C 95 % 1018,9 hPa 0,0 l/m 1,0 km/h (0 Bft) N-NW 337 11,6 C 12,8 C 0,0 km/h (0 Bft)
05.10.2013 00:15 12,4 C 95 % 1018,9 hPa 0,0 l/m 1,1 km/h (1 Bft) SO 135 11,6 C 12,7 C 3,4 km/h (1 Bft)
05.10.2013 00:20 12,4 C 95 % 1018,9 hPa 0,0 l/m 1,4 km/h (1 Bft) W-NW 292 11,6 C 12,7 C 2,7 km/h (1 Bft)
05.10.2013 00:25 12,2 C 95 % 1018,6 hPa 0,0 l/m 1,8 km/h (1 Bft) N 360 11,4 C 12,6 C 0,0 km/h (0 Bft)
05.10.2013 00:30 12,1 C 95 % 1018,6 hPa 0,0 l/m 1,1 km/h (1 Bft) N 360 11,3 C 12,5 C 0,0 km/h (0 Bft)
05.10.2013 00:35 11,9 C 96 % 1018,6 hPa 0,0 l/m 0,2 km/h (0 Bft) NW 315 11,3 C 12,4 C 0,0 km/h (0 Bft)
05.10.2013 00:40 11,9 C 96 % 1018,6 hPa 0,0 l/m 0,5 km/h (0 Bft) NW 315 11,3 C 12,3 C 1,6 km/h (1 Bft)
05.10.2013 00:45 11,9 C 96 % 1018,1 hPa 0,0 l/m 0,8 km/h (0 Bft) N 360 11,3 C 12,3 C 1,6 km/h (1 Bft)
05.10.2013 00:50 11,9 C 96 % 1018,1 hPa 0,0 l/m 0,6 km/h (0 Bft) NW 315 11,3 C 12,3 C 2,9 km/h (1 Bft)
05.10.2013 00:55 11,8 C 96 % 1018,1 hPa 0,0 l/m 1,0 km/h (0 Bft) O-NO 67 11,2 C 12,2 C 3,2 km/h (1 Bft)
05.10.2013 01:00 11,7 C 96 % 1018,1 hPa 0,0 l/m 1,3 km/h (1 Bft) N 360 11,1 C 12,1 C 2,6 km/h (1 Bft)
05.10.2013 01:05 11,6 C 96 % 1018,1 hPa 0,0 l/m 0,6 km/h (0 Bft) NW 315 11,0 C 12,0 C 0,0 km/h (0 Bft)
05.10.2013 01:10 11,6 C 96 % 1018,1 hPa 0,0 l/m 0,5 km/h (0 Bft) N-NW 337 11,0 C 12,0 C 2,1 km/h (1 Bft)
05.10.2013 01:15 11,5 C 96 % 1018,1 hPa 0,0 l/m 0,3 km/h (0 Bft) N-NW 337 10,9 C 11,9 C 0,0 km/h (0 Bft)
05.10.2013 01:20 11,5 C 96 % 1018,1 hPa 0,0 l/m 0,3 km/h (0 Bft) O 90 10,9 C 11,8 C 0,0 km/h (0 Bft)
05.10.2013 01:25 11,0 C 96 % 1017,9 hPa 0,0 l/m 0,2 km/h (0 Bft) SO 135 10,4 C 11,6 C 0,0 km/h (0 Bft)
05.10.2013 01:30 11,0 C 96 % 1017,9 hPa 0,0 l/m 0,0 km/h (0 Bft) O-SO 112 10,4 C 11,5 C 0,0 km/h (0 Bft)
05.10.2013 01:35 10,9 C 96 % 1017,9 hPa 0,0 l/m 0,0 km/h (0 Bft) O-SO 112 10,3 C 11,5 C 0,0 km/h (0 Bft)
05.10.2013 01:40 11,1 C 96 % 1017,9 hPa 0,0 l/m 0,3 km/h (0 Bft) O 90 10,5 C 11,4 C 2,7 km/h (1 Bft)
05.10.2013 01:45 11,1 C 96 % 1017,8 hPa 0,0 l/m 0,3 km/h (0 Bft) NO 45 10,5 C 11,4 C 0,0 km/h (0 Bft)
05.10.2013 01:50 11,1 C 96 % 1017,8 hPa 0,0 l/m 0,6 km/h (0 Bft) O-SO 112 10,5 C 11,4 C 0,0 km/h (0 Bft)
05.10.2013 01:55 11,2 C 96 % 1017,8 hPa 0,0 l/m 0,3 km/h (0 Bft) O 90 10,6 C 11,5 C 0,0 km/h (0 Bft)
05.10.2013 02:00 11,2 C 96 % 1017,8 hPa 0,0 l/m 0,3 km/h (0 Bft) N-NW 337 10,6 C 11,5 C 1,8 km/h (1 Bft)
05.10.2013 02:05 11,3 C 96 % 1017,6 hPa 0,0 l/m 0,3 km/h (0 Bft) N-NW 337 10,7 C 11,5 C 0,0 km/h (0 Bft)
05.10.2013 02:10 11,3 C 96 % 1017,6 hPa 0,0 l/m 0,2 km/h (0 Bft) NO 45 10,7 C 11,6 C 0,0 km/h (0 Bft)
05.10.2013 02:15 11,3 C 96 % 1017,6 hPa 0,0 l/m 0,2 km/h (0 Bft) NO 45 10,7 C 11,6 C 0,0 km/h (0 Bft)
05.10.2013 02:20 11,3 C 96 % 1017,6 hPa 0,0 l/m 0,5 km/h (0 Bft) N-NO 22 10,7 C 11,6 C 1,9 km/h (1 Bft)
05.10.2013 02:25 11,2 C 96 % 1017,2 hPa 0,0 l/m 1,1 km/h (1 Bft) NO 45 10,6 C 11,5 C 2,1 km/h (1 Bft)
05.10.2013 02:30 11,1 C 96 % 1017,2 hPa 0,0 l/m 1,4 km/h (1 Bft) NO 45 10,5 C 11,5 C 3,4 km/h (1 Bft)
05.10.2013 02:35 11,0 C 96 % 1017,2 hPa 0,0 l/m 1,4 km/h (1 Bft) NO 45 10,4 C 11,4 C 3,7 km/h (1 Bft)
05.10.2013 02:40 10,9 C 96 % 1017,2 hPa 0,0 l/m 1,4 km/h (1 Bft) NO 45 10,3 C 11,2 C 2,7 km/h (1 Bft)
05.10.2013 02:45 10,8 C 96 % 1017,2 hPa 0,0 l/m 1,6 km/h (1 Bft) O-SO 112 10,2 C 11,2 C 0,0 km/h (0 Bft)
05.10.2013 02:50 10,7 C 96 % 1017,2 hPa 0,0 l/m 1,1 km/h (1 Bft) O 90 10,1 C 11,1 C 0,0 km/h (0 Bft)
05.10.2013 02:55 10,7 C 96 % 1017,2 hPa 0,0 l/m 0,3 km/h (0 Bft) O-NO 67 10,1 C 11,0 C 2,3 km/h (1 Bft)
05.10.2013 03:00 10,7 C 96 % 1017,2 hPa 0,0 l/m 1,0 km/h (0 Bft) O 90 10,1 C 11,0 C 0,0 km/h (0 Bft)
05.10.2013 03:05 10,6 C 96 % 1017,2 hPa 0,0 l/m 1,4 km/h (1 Bft) N 360 10,0 C 11,0 C 1,8 km/h (1 Bft)
05.10.2013 03:10 10,5 C 96 % 1017,2 hPa 0,0 l/m 1,1 km/h (1 Bft) NO 45 9,9 C 10,9 C 2,1 km/h (1 Bft)
05.10.2013 03:15 10,5 C 96 % 1017,2 hPa 0,0 l/m 0,8 km/h (0 Bft) NO 45 9,9 C 10,8 C 0,0 km/h (0 Bft)
05.10.2013 03:20 10,4 C 96 % 1017,2 hPa 0,0 l/m 1,3 km/h (1 Bft) O 90 9,8 C 10,8 C 1,8 km/h (1 Bft)
05.10.2013 03:25 10,3 C 96 % 1016,9 hPa 0,0 l/m 1,3 km/h (1 Bft) O-SO 112 9,7 C 10,7 C 3,9 km/h (1 Bft)
05.10.2013 03:30 10,2 C 96 % 1016,9 hPa 0,0 l/m 1,0 km/h (0 Bft) O 90 9,6 C 10,5 C 0,0 km/h (0 Bft)
05.10.2013 03:35 10,0 C 96 % 1016,9 hPa 0,0 l/m 0,6 km/h (0 Bft) O-SO 112 9,4 C 10,4 C 2,4 km/h (1 Bft)
05.10.2013 03:40 9,9 C 96 % 1016,9 hPa 0,0 l/m 0,5 km/h (0 Bft) S-SO 157 9,3 C 10,3 C 0,0 km/h (0 Bft)
05.10.2013 03:45 10,1 C 96 % 1017,0 hPa 0,0 l/m 0,2 km/h (0 Bft) O-NO 67 9,5 C 10,3 C 0,0 km/h (0 Bft)
05.10.2013 03:50 10,2 C 96 % 1017,0 hPa 0,0 l/m 0,0 km/h (0 Bft) O 90 9,6 C 10,3 C 0,0 km/h (0 Bft)
05.10.2013 03:55 10,4 C 96 % 1017,0 hPa 0,0 l/m 1,0 km/h (0 Bft) S-SO 157 9,8 C 10,6 C 4,0 km/h (1 Bft)
05.10.2013 04:00 10,5 C 96 % 1017,0 hPa 0,0 l/m 2,4 km/h (1 Bft) S 180 9,9 C 10,7 C 5,3 km/h (1 Bft)
05.10.2013 04:05 10,3 C 96 % 1017,0 hPa 0,0 l/m 3,2 km/h (1 Bft) S-SW 202 9,7 C 10,6 C 5,8 km/h (2 Bft)
05.10.2013 04:10 10,1 C 96 % 1017,0 hPa 0,0 l/m 2,1 km/h (1 Bft) W-SW 247 9,5 C 10,5 C 0,0 km/h (0 Bft)
05.10.2013 04:15 9,9 C 96 % 1017,0 hPa 0,0 l/m 0,3 km/h (0 Bft) W-SW 247 9,3 C 10,3 C 0,0 km/h (0 Bft)
05.10.2013 04:20 9,7 C 96 % 1017,0 hPa 0,0 l/m 0,2 km/h (0 Bft) S-SW 202 9,1 C 10,1 C 0,0 km/h (0 Bft)
05.10.2013 04:25 9,7 C 96 % 1017,1 hPa 0,0 l/m 0,8 km/h (0 Bft) S-SO 157 9,1 C 10,0 C 1,6 km/h (1 Bft)
05.10.2013 04:30 9,6 C 96 % 1017,1 hPa 0,0 l/m 0,8 km/h (0 Bft) O-SO 112 9,0 C 10,0 C 0,0 km/h (0 Bft)
05.10.2013 04:35 9,4 C 96 % 1017,1 hPa 0,0 l/m 0,2 km/h (0 Bft) S-SO 157 8,8 C 9,9 C 0,0 km/h (0 Bft)
05.10.2013 04:40 9,4 C 96 % 1017,1 hPa 0,0 l/m 0,2 km/h (0 Bft) NO 45 8,8 C 9,7 C 1,8 km/h (1 Bft)
05.10.2013 04:45 9,4 C 96 % 1016,8 hPa 0,0 l/m 0,3 km/h (0 Bft) O-SO 112 8,8 C 9,6 C 3,5 km/h (1 Bft)
05.10.2013 04:50 9,5 C 96 % 1016,8 hPa 0,0 l/m 0,5 km/h (0 Bft) O 90 8,9 C 9,6 C 0,0 km/h (0 Bft)
05.10.2013 04:55 9,4 C 96 % 1016,8 hPa 0,0 l/m 0,5 km/h (0 Bft) NO 45 8,8 C 9,6 C 0,0 km/h (0 Bft)
05.10.2013 05:00 9,5 C 96 % 1016,8 hPa 0,0 l/m 0,2 km/h (0 Bft) O-NO 67 8,9 C 9,6 C 0,0 km/h (0 Bft)
05.10.2013 05:05 9,7 C 96 % 1016,8 hPa 0,0 l/m 0,5 km/h (0 Bft) N-NO 22 9,1 C 9,9 C 0,0 km/h (0 Bft)
05.10.2013 05:10 9,4 C 96 % 1016,8 hPa 0,0 l/m 0,3 km/h (0 Bft) O-SO 112 8,8 C 9,9 C 0,0 km/h (0 Bft)
05.10.2013 05:15 9,4 C 96 % 1016,8 hPa 0,0 l/m 0,0 km/h (0 Bft) O-SO 112 8,8 C 9,7 C 0,0 km/h (0 Bft)
05.10.2013 05:20 9,3 C 96 % 1016,8 hPa 0,0 l/m 0,0 km/h (0 Bft) O-SO 112 8,7 C 9,6 C 0,0 km/h (0 Bft)
05.10.2013 05:25 9,3 C 96 % 1016,8 hPa 0,0 l/m 0,0 km/h (0 Bft) O-SO 112 8,7 C 9,6 C 0,0 km/h (0 Bft)
05.10.2013 05:30 9,6 C 96 % 1016,8 hPa 0,0 l/m 0,2 km/h (0 Bft) O-SO 112 9,0 C 9,7 C 0,0 km/h (0 Bft)
05.10.2013 05:35 9,5 C 96 % 1016,8 hPa 0,0 l/m 0,2 km/h (0 Bft) O-SO 112 8,9 C 9,9 C 0,0 km/h (0 Bft)
05.10.2013 05:40 9,9 C 96 % 1016,8 hPa 0,0 l/m 0,2 km/h (0 Bft) O 90 9,3 C 9,9 C 2,4 km/h (1 Bft)
05.10.2013 05:45 10,1 C 96 % 1016,8 hPa 0,0 l/m 0,5 km/h (0 Bft) NO 45 9,5 C 10,3 C 2,1 km/h (1 Bft)
05.10.2013 05:50 10,3 C 96 % 1016,8 hPa 0,0 l/m 0,8 km/h (0 Bft) O 90 9,7 C 10,5 C 1,9 km/h (1 Bft)
05.10.2013 05:55 11,0 C 96 % 1016,8 hPa 0,0 l/m 0,6 km/h (0 Bft) O 90 10,4 C 10,9 C 0,0 km/h (0 Bft)
05.10.2013 06:00 10,5 C 96 % 1016,8 hPa 0,0 l/m 0,5 km/h (0 Bft) S 180 9,9 C 11,1 C 0,0 km/h (0 Bft)
05.10.2013 06:05 10,3 C 96 % 1016,9 hPa 0,0 l/m 0,0 km/h (0 Bft) S 180 9,7 C 11,2 C 0,0 km/h (0 Bft)
05.10.2013 06:10 10,6 C 96 % 1016,9 hPa 0,0 l/m 0,0 km/h (0 Bft) S 180 10,0 C 11,2 C 0,0 km/h (0 Bft)
05.10.2013 06:15 11,4 C 96 % 1016,9 hPa 0,0 l/m 0,2 km/h (0 Bft) O 90 10,8 C 11,5 C 0,0 km/h (0 Bft)
05.10.2013 06:20 11,5 C 96 % 1016,9 hPa 0,0 l/m 0,3 km/h (0 Bft) S 180 10,9 C 11,8 C 2,4 km/h (1 Bft)
05.10.2013 06:25 11,8 C 96 % 1016,9 hPa 0,0 l/m 0,6 km/h (0 Bft) SO 135 11,2 C 12,1 C 0,0 km/h (0 Bft)
05.10.2013 06:30 11,8 C 96 % 1016,9 hPa 0,0 l/m 1,0 km/h (0 Bft) O-NO 67 11,2 C 12,2 C 0,0 km/h (0 Bft)
05.10.2013 06:35 11,9 C 96 % 1016,9 hPa 0,0 l/m 0,5 km/h (0 Bft) O-NO 67 11,3 C 12,3 C 0,0 km/h (0 Bft)
05.10.2013 06:40 12,0 C 96 % 1016,9 hPa 0,0 l/m 0,2 km/h (0 Bft) NO 45 11,4 C 12,4 C 0,0 km/h (0 Bft)
05.10.2013 06:45 12,2 C 96 % 1016,7 hPa 0,0 l/m 0,8 km/h (0 Bft) N 360 11,6 C 12,4 C 1,9 km/h (1 Bft)
05.10.2013 06:50 12,1 C 96 % 1016,7 hPa 0,0 l/m 1,1 km/h (1 Bft) NO 45 11,5 C 12,5 C 2,3 km/h (1 Bft)
05.10.2013 06:55 12,4 C 96 % 1016,7 hPa 0,0 l/m 1,8 km/h (1 Bft) SO 135 11,8 C 12,6 C 1,9 km/h (1 Bft)
05.10.2013 07:00 12,4 C 96 % 1016,7 hPa 0,0 l/m 1,3 km/h (1 Bft) S-SW 202 11,8 C 12,7 C 0,0 km/h (0 Bft)
05.10.2013 07:05 12,5 C 96 % 1016,9 hPa 0,0 l/m 1,3 km/h (1 Bft) NO 45 11,9 C 12,7 C 2,1 km/h (1 Bft)
05.10.2013 07:10 12,5 C 96 % 1016,9 hPa 0,0 l/m 1,6 km/h (1 Bft) O-NO 67 11,9 C 12,8 C 2,7 km/h (1 Bft)
05.10.2013 07:15 12,5 C 96 % 1016,9 hPa 0,0 l/m 1,4 km/h (1 Bft) NO 45 11,9 C 12,8 C 1,6 km/h (1 Bft)
05.10.2013 07:20 12,5 C 96 % 1016,9 hPa 0,0 l/m 1,0 km/h (0 Bft) S 180 11,9 C 12,7 C 2,4 km/h (1 Bft)
05.10.2013 07:25 12,4 C 96 % 1016,7 hPa 0,0 l/m 0,2 km/h (0 Bft) O 90 11,8 C 12,7 C 0,0 km/h (0 Bft)
05.10.2013 07:30 12,5 C 96 % 1016,7 hPa 0,0 l/m 0,2 km/h (0 Bft) NO 45 11,9 C 12,7 C 1,9 km/h (1 Bft)
05.10.2013 07:35 12,6 C 96 % 1016,7 hPa 0,0 l/m 0,5 km/h (0 Bft) NO 45 12,0 C 12,9 C 1,6 km/h (1 Bft)
05.10.2013 07:40 12,6 C 96 % 1016,7 hPa 0,0 l/m 0,5 km/h (0 Bft) NO 45 12,0 C 12,9 C 0,0 km/h (0 Bft)
05.10.2013 07:45 12,7 C 96 % 1017,0 hPa 0,0 l/m 0,3 km/h (0 Bft) NO 45 12,1 C 12,9 C 0,0 km/h (0 Bft)
05.10.2013 07:50 12,8 C 96 % 1017,0 hPa 0,0 l/m 0,6 km/h (0 Bft) NO 45 12,2 C 13,1 C 3,1 km/h (1 Bft)
05.10.2013 07:55 12,8 C 96 % 1017,0 hPa 0,0 l/m 0,6 km/h (0 Bft) SO 135 12,2 C 13,1 C 0,0 km/h (0 Bft)
05.10.2013 08:00 12,9 C 96 % 1017,0 hPa 0,0 l/m 0,6 km/h (0 Bft) S 180 12,3 C 13,1 C 0,0 km/h (0 Bft)
05.10.2013 08:05 12,9 C 96 % 1017,1 hPa 0,0 l/m 0,6 km/h (0 Bft) W 270 12,3 C 13,3 C 3,5 km/h (1 Bft)
05.10.2013 08:10 13,0 C 95 % 1017,1 hPa 0,0 l/m 0,3 km/h (0 Bft) SO 135 12,2 C 13,3 C 0,0 km/h (0 Bft)
05.10.2013 08:15 13,1 C 95 % 1017,1 hPa 0,0 l/m 0,8 km/h (0 Bft) S 180 12,3 C 13,4 C 2,9 km/h (1 Bft)
05.10.2013 08:20 13,1 C 95 % 1017,1 hPa 0,0 l/m 0,8 km/h (0 Bft) SO 135 12,3 C 13,4 C 0,0 km/h (0 Bft)
05.10.2013 08:25 13,1 C 95 % 1017,1 hPa 0,0 l/m 1,8 km/h (1 Bft) S 180 12,3 C 13,4 C 7,1 km/h (2 Bft)
05.10.2013 08:30 13,2 C 95 % 1017,1 hPa 0,0 l/m 2,6 km/h (1 Bft) S 180 12,4 C 13,5 C 7,2 km/h (2 Bft)
05.10.2013 08:35 13,2 C 95 % 1017,1 hPa 0,0 l/m 3,5 km/h (1 Bft) S-SW 202 12,4 C 13,5 C 11,4 km/h (2 Bft)
05.10.2013 08:40 13,2 C 95 % 1017,1 hPa 0,0 l/m 5,0 km/h (1 Bft) O-SO 112 12,4 C 13,5 C 10,0 km/h (2 Bft)
05.10.2013 08:45 13,2 C 95 % 1017,4 hPa 0,0 l/m 6,6 km/h (2 Bft) S 180 12,4 C 13,4 C 13,8 km/h (3 Bft)
05.10.2013 08:50 13,2 C 95 % 1017,4 hPa 0,0 l/m 7,2 km/h (2 Bft) S-SW 202 12,4 C 12,8 C 10,0 km/h (2 Bft)
05.10.2013 08:55 13,3 C 95 % 1017,4 hPa 0,0 l/m 9,0 km/h (2 Bft) S 180 12,5 C 11,5 C 16,7 km/h (3 Bft)
05.10.2013 09:00 13,3 C 95 % 1017,4 hPa 0,0 l/m 9,0 km/h (2 Bft) S-SO 157 12,5 C 11,6 C 7,2 km/h (2 Bft)
05.10.2013 09:05 13,3 C 95 % 1017,6 hPa 0,7 l/m 8,9 km/h (2 Bft) S-SW 202 12,5 C 11,7 C 18,7 km/h (3 Bft)
05.10.2013 09:10 13,3 C 95 % 1017,6 hPa 0,0 l/m 9,3 km/h (2 Bft) W 270 12,5 C 11,5 C 9,3 km/h (2 Bft)
05.10.2013 09:15 13,3 C 95 % 1017,6 hPa 0,0 l/m 10,3 km/h (2 Bft) S-SW 202 12,5 C 10,8 C 20,3 km/h (4 Bft)
05.10.2013 09:20 13,3 C 95 % 1017,6 hPa 0,0 l/m 11,6 km/h (2 Bft) S 180 12,5 C 9,9 C 17,9 km/h (3 Bft)
05.10.2013 09:25 13,3 C 95 % 1017,8 hPa 0,7 l/m 12,1 km/h (2 Bft) S 180 12,5 C 9,7 C 22,0 km/h (4 Bft)
05.10.2013 09:30 13,2 C 95 % 1017,8 hPa 0,0 l/m 12,6 km/h (3 Bft) S-SO 157 12,4 C 9,4 C 20,9 km/h (4 Bft)
05.10.2013 09:35 13,2 C 95 % 1017,8 hPa 0,0 l/m 13,2 km/h (3 Bft) S-SO 157 12,4 C 9,0 C 29,0 km/h (5 Bft)
05.10.2013 09:40 13,2 C 95 % 1017,8 hPa 0,0 l/m 11,6 km/h (2 Bft) S-SW 202 12,4 C 9,8 C 12,9 km/h (3 Bft)
05.10.2013 09:45 13,3 C 95 % 1018,1 hPa 0,0 l/m 9,7 km/h (2 Bft) S-SO 157 12,5 C 11,1 C 10,5 km/h (2 Bft)
05.10.2013 09:50 13,3 C 95 % 1018,1 hPa 0,0 l/m 9,0 km/h (2 Bft) S-SO 157 12,5 C 11,5 C 5,1 km/h (1 Bft)
05.10.2013 09:55 13,3 C 95 % 1018,1 hPa 0,7 l/m 8,4 km/h (2 Bft) S 180 12,5 C 12,0 C 12,4 km/h (3 Bft)
05.10.2013 10:00 13,3 C 95 % 1018,1 hPa 0,0 l/m 8,2 km/h (2 Bft) S 180 12,5 C 12,1 C 8,7 km/h (2 Bft)
05.10.2013 10:05 13,3 C 95 % 1018,2 hPa 0,0 l/m 7,6 km/h (2 Bft) S-SO 157 12,5 C 12,7 C 18,8 km/h (3 Bft)
05.10.2013 10:10 13,3 C 95 % 1018,2 hPa 0,0 l/m 7,2 km/h (2 Bft) SO 135 12,5 C 13,0 C 10,5 km/h (2 Bft)
05.10.2013 10:15 13,3 C 95 % 1018,2 hPa 0,7 l/m 7,2 km/h (2 Bft) O 90 12,5 C 13,0 C 12,1 km/h (2 Bft)
05.10.2013 10:20 13,3 C 95 % 1018,2 hPa 0,0 l/m 7,9 km/h (2 Bft) S-SO 157 12,5 C 12,5 C 13,5 km/h (3 Bft)
05.10.2013 10:25 13,3 C 95 % 1018,5 hPa 0,0 l/m 7,7 km/h (2 Bft) SO 135 12,5 C 12,6 C 6,1 km/h (2 Bft)
05.10.2013 10:30 13,3 C 95 % 1018,5 hPa 0,0 l/m 6,8 km/h (2 Bft) S 180 12,5 C 13,2 C 7,4 km/h (2 Bft)
05.10.2013 10:35 13,4 C 95 % 1018,5 hPa 0,0 l/m 7,1 km/h (2 Bft) O-SO 112 12,6 C 13,1 C 11,1 km/h (2 Bft)
05.10.2013 10:40 13,4 C 95 % 1018,5 hPa 0,0 l/m 7,2 km/h (2 Bft) S 180 12,6 C 13,0 C 8,0 km/h (2 Bft)
05.10.2013 10:45 13,4 C 95 % 1018,8 hPa 0,0 l/m 7,6 km/h (2 Bft) S-SW 202 12,6 C 12,7 C 11,1 km/h (2 Bft)
05.10.2013 10:50 13,4 C 95 % 1018,8 hPa 0,0 l/m 7,7 km/h (2 Bft) O-SO 112 12,6 C 12,6 C 9,3 km/h (2 Bft)
05.10.2013 10:55 13,4 C 95 % 1018,8 hPa 0,7 l/m 6,6 km/h (2 Bft) S-SO 157 12,6 C 13,5 C 1,9 km/h (1 Bft)
05.10.2013 11:00 13,4 C 95 % 1018,8 hPa 0,0 l/m 6,0 km/h (2 Bft) S-SO 157 12,6 C 13,7 C 12,2 km/h (2 Bft)
05.10.2013 11:05 13,4 C 95 % 1019,1 hPa 0,0 l/m 6,3 km/h (2 Bft) S-SO 157 12,6 C 13,7 C 7,7 km/h (2 Bft)
05.10.2013 11:10 13,4 C 95 % 1019,1 hPa 0,0 l/m 6,6 km/h (2 Bft) S-SW 202 12,6 C 13,5 C 9,7 km/h (2 Bft)
05.10.2013 11:15 13,4 C 95 % 1019,1 hPa 0,0 l/m 5,3 km/h (1 Bft) S 180 12,6 C 13,7 C 6,4 km/h (2 Bft)
05.10.2013 11:20 13,4 C 95 % 1019,1 hPa 0,0 l/m 4,5 km/h (1 Bft) S 180 12,6 C 13,7 C 8,0 km/h (2 Bft)
05.10.2013 11:25 13,4 C 95 % 1019,3 hPa 0,0 l/m 4,7 km/h (1 Bft) S-SO 157 12,6 C 13,7 C 7,4 km/h (2 Bft)
05.10.2013 11:30 13,4 C 95 % 1019,3 hPa 0,7 l/m 5,1 km/h (1 Bft) S 180 12,6 C 13,7 C 8,4 km/h (2 Bft)
05.10.2013 11:35 13,4 C 95 % 1019,3 hPa 0,0 l/m 4,3 km/h (1 Bft) S 180 12,6 C 13,7 C 10,0 km/h (2 Bft)
05.10.2013 11:40 13,4 C 95 % 1019,3 hPa 0,0 l/m 4,3 km/h (1 Bft) S 180 12,6 C 13,7 C 6,9 km/h (2 Bft)
05.10.2013 11:45 13,4 C 95 % 1019,6 hPa 0,0 l/m 4,8 km/h (1 Bft) O-SO 112 12,6 C 13,7 C 11,3 km/h (2 Bft)
05.10.2013 11:50 13,4 C 95 % 1019,6 hPa 0,0 l/m 5,3 km/h (1 Bft) W 270 12,6 C 13,7 C 6,1 km/h (2 Bft)
05.10.2013 11:55 13,4 C 95 % 1019,6 hPa 0,7 l/m 6,0 km/h (2 Bft) SO 135 12,6 C 13,6 C 9,3 km/h (2 Bft)
05.10.2013 12:00 13,4 C 95 % 1019,6 hPa 0,0 l/m 6,4 km/h (2 Bft) SO 135 12,6 C 13,5 C 8,0 km/h (2 Bft)
05.10.2013 12:05 13,4 C 95 % 1019,7 hPa 0,0 l/m 6,3 km/h (2 Bft) W-SW 247 12,6 C 13,6 C 4,2 km/h (1 Bft)
05.10.2013 12:10 13,4 C 95 % 1019,7 hPa 0,7 l/m 6,0 km/h (2 Bft) S-SO 157 12,6 C 13,7 C 5,5 km/h (1 Bft)
05.10.2013 12:15 13,5 C 95 % 1019,7 hPa 0,0 l/m 6,0 km/h (2 Bft) SO 135 12,7 C 13,7 C 6,1 km/h (2 Bft)
05.10.2013 12:20 13,5 C 95 % 1019,7 hPa 0,0 l/m 5,6 km/h (1 Bft) S 180 12,7 C 13,8 C 6,9 km/h (2 Bft)
05.10.2013 12:25 13,6 C 95 % 1019,6 hPa 0,0 l/m 5,6 km/h (1 Bft) O-SO 112 12,8 C 13,8 C 4,0 km/h (1 Bft)
05.10.2013 12:30 13,7 C 95 % 1019,6 hPa 0,0 l/m 5,3 km/h (1 Bft) SO 135 12,9 C 14,0 C 11,6 km/h (2 Bft)
05.10.2013 12:35 13,8 C 95 % 1019,6 hPa 0,0 l/m 5,3 km/h (1 Bft) S-SW 202 13,0 C 14,1 C 6,3 km/h (2 Bft)
05.10.2013 12:40 14,0 C 95 % 1019,6 hPa 0,7 l/m 5,3 km/h (1 Bft) SO 135 13,2 C 14,1 C 5,1 km/h (1 Bft)
05.10.2013 12:45 14,3 C 95 % 1019,9 hPa 0,0 l/m 4,0 km/h (1 Bft) W 270 13,5 C 14,3 C 3,4 km/h (1 Bft)
05.10.2013 12:50 14,2 C 95 % 1019,9 hPa 0,0 l/m 4,0 km/h (1 Bft) SO 135 13,4 C 14,4 C 5,5 km/h (1 Bft)
05.10.2013 12:55 14,2 C 95 % 1019,9 hPa 0,0 l/m 4,7 km/h (1 Bft) S-SW 202 13,4 C 14,5 C 4,5 km/h (1 Bft)
05.10.2013 13:00 14,5 C 95 % 1019,9 hPa 0,0 l/m 4,5 km/h (1 Bft) S 180 13,7 C 14,6 C 4,2 km/h (1 Bft)
05.10.2013 13:05 14,5 C 95 % 1019,8 hPa 0,0 l/m 4,3 km/h (1 Bft) SO 135 13,7 C 14,7 C 5,0 km/h (1 Bft)
05.10.2013 13:10 14,5 C 95 % 1019,8 hPa 0,0 l/m 4,3 km/h (1 Bft) S-SO 157 13,7 C 14,7 C 3,7 km/h (1 Bft)
05.10.2013 13:15 14,5 C 95 % 1019,8 hPa 0,0 l/m 4,2 km/h (1 Bft) S-SO 157 13,7 C 14,7 C 4,2 km/h (1 Bft)
05.10.2013 13:20 14,5 C 95 % 1019,8 hPa 0,0 l/m 3,7 km/h (1 Bft) S-SW 202 13,7 C 14,7 C 6,0 km/h (2 Bft)
05.10.2013 13:25 14,4 C 95 % 1019,8 hPa 0,0 l/m 4,5 km/h (1 Bft) S 180 13,6 C 14,6 C 4,2 km/h (1 Bft)
05.10.2013 13:30 14,3 C 95 % 1019,8 hPa 0,0 l/m 5,0 km/h (1 Bft) S-SO 157 13,5 C 14,6 C 7,7 km/h (2 Bft)
05.10.2013 13:35 14,4 C 95 % 1019,8 hPa 0,7 l/m 4,5 km/h (1 Bft) S-SO 157 13,6 C 14,5 C 8,9 km/h (2 Bft)
05.10.2013 13:40 14,2 C 95 % 1019,8 hPa 0,0 l/m 4,2 km/h (1 Bft) W-NW 292 13,4 C 14,5 C 8,7 km/h (2 Bft)
05.10.2013 13:45 14,2 C 94 % 1019,7 hPa 0,0 l/m 4,7 km/h (1 Bft) S 180 13,2 C 14,5 C 7,1 km/h (2 Bft)
05.10.2013 13:50 14,3 C 94 % 1019,7 hPa 0,0 l/m 5,0 km/h (1 Bft) SO 135 13,3 C 14,5 C 6,4 km/h (2 Bft)
05.10.2013 13:55 14,4 C 94 % 1019,7 hPa 0,0 l/m 5,5 km/h (1 Bft) O-NO 67 13,4 C 14,5 C 8,4 km/h (2 Bft)
05.10.2013 14:00 14,5 C 94 % 1019,7 hPa 0,0 l/m 5,3 km/h (1 Bft) S-SO 157 13,5 C 14,7 C 6,8 km/h (2 Bft)
05.10.2013 14:05 14,6 C 94 % 1019,7 hPa 0,0 l/m 5,3 km/h (1 Bft) S-SO 157 13,6 C 14,8 C 5,8 km/h (2 Bft)
05.10.2013 14:10 14,8 C 94 % 1019,7 hPa 0,0 l/m 4,8 km/h (1 Bft) O-SO 112 13,8 C 15,0 C 1,9 km/h (1 Bft)
05.10.2013 14:15 14,9 C 94 % 1019,7 hPa 0,0 l/m 3,4 km/h (1 Bft) S-SO 157 13,9 C 15,2 C 2,7 km/h (1 Bft)
05.10.2013 14:20 14,9 C 94 % 1019,7 hPa 0,0 l/m 2,9 km/h (1 Bft) S 180 13,9 C 15,3 C 5,6 km/h (1 Bft)
05.10.2013 14:25 14,9 C 94 % 1019,9 hPa 0,0 l/m 2,9 km/h (1 Bft) SO 135 13,9 C 15,4 C 4,2 km/h (1 Bft)
05.10.2013 14:30 15,1 C 94 % 1019,9 hPa 0,0 l/m 2,6 km/h (1 Bft) S 180 14,1 C 15,5 C 3,5 km/h (1 Bft)
05.10.2013 14:35 15,0 C 94 % 1019,9 hPa 0,0 l/m 2,7 km/h (1 Bft) S 180 14,0 C 15,4 C 2,6 km/h (1 Bft)
05.10.2013 14:40 15,0 C 94 % 1019,9 hPa 0,0 l/m 2,7 km/h (1 Bft) S 180 14,0 C 15,4 C 2,6 km/h (1 Bft)
05.10.2013 14:45 15,1 C 94 % 1019,7 hPa 0,0 l/m 2,6 km/h (1 Bft) S-SO 157 14,1 C 15,4 C 5,5 km/h (1 Bft)
05.10.2013 14:50 15,0 C 93 % 1019,7 hPa 0,0 l/m 2,4 km/h (1 Bft) S-SO 157 13,9 C 15,3 C 4,0 km/h (1 Bft)
05.10.2013 14:55 14,9 C 94 % 1019,7 hPa 0,0 l/m 1,3 km/h (1 Bft) S 180 13,9 C 15,2 C 0,0 km/h (0 Bft)
05.10.2013 15:00 14,9 C 94 % 1019,7 hPa 0,0 l/m 1,4 km/h (1 Bft) S-SO 157 13,9 C 15,2 C 5,3 km/h (1 Bft)
05.10.2013 15:05 14,6 C 93 % 1019,8 hPa 0,0 l/m 1,9 km/h (1 Bft) N 360 13,5 C 15,1 C 2,6 km/h (1 Bft)
05.10.2013 15:10 14,8 C 93 % 1019,8 hPa 0,0 l/m 2,3 km/h (1 Bft) S 180 13,7 C 15,0 C 2,1 km/h (1 Bft)
05.10.2013 15:15 14,9 C 93 % 1019,8 hPa 0,0 l/m 1,4 km/h (1 Bft) S 180 13,8 C 15,0 C 0,0 km/h (0 Bft)
05.10.2013 15:20 15,0 C 93 % 1019,8 hPa 0,0 l/m 0,8 km/h (0 Bft) O-SO 112 13,9 C 15,1 C 0,0 km/h (0 Bft)
05.10.2013 15:25 15,0 C 93 % 1019,7 hPa 0,0 l/m 1,3 km/h (1 Bft) W 270 13,9 C 15,3 C 2,9 km/h (1 Bft)
05.10.2013 15:30 14,8 C 93 % 1019,7 hPa 0,0 l/m 1,9 km/h (1 Bft) S-SW 202 13,7 C 15,2 C 1,6 km/h (1 Bft)
05.10.2013 15:35 14,6 C 93 % 1019,7 hPa 0,0 l/m 1,8 km/h (1 Bft) O 90 13,5 C 15,0 C 2,1 km/h (1 Bft)
05.10.2013 15:40 14,4 C 93 % 1019,7 hPa 0,0 l/m 1,0 km/h (0 Bft) N 360 13,3 C 15,0 C 0,0 km/h (0 Bft)
05.10.2013 15:45 14,3 C 93 % 1019,8 hPa 0,0 l/m 0,6 km/h (0 Bft) O-SO 112 13,2 C 14,8 C 3,9 km/h (1 Bft)
05.10.2013 15:50 14,4 C 93 % 1019,8 hPa 0,0 l/m 1,0 km/h (0 Bft) O 90 13,3 C 14,7 C 4,0 km/h (1 Bft)
05.10.2013 15:55 14,2 C 93 % 1019,8 hPa 0,0 l/m 1,0 km/h (0 Bft) N 360 13,1 C 14,5 C 0,0 km/h (0 Bft)
05.10.2013 16:00 14,1 C 93 % 1019,8 hPa 0,0 l/m 0,8 km/h (0 Bft) O 90 13,0 C 14,5 C 1,8 km/h (1 Bft)
05.10.2013 16:05 14,1 C 93 % 1019,8 hPa 0,7 l/m 0,3 km/h (0 Bft) SO 135 13,0 C 14,4 C 0,0 km/h (0 Bft)
05.10.2013 16:10 14,1 C 93 % 1019,8 hPa 0,0 l/m 0,2 km/h (0 Bft) S 180 13,0 C 14,5 C 0,0 km/h (0 Bft)
05.10.2013 16:15 14,1 C 93 % 1019,8 hPa 0,0 l/m 0,2 km/h (0 Bft) O 90 13,0 C 14,5 C 1,9 km/h (1 Bft)
05.10.2013 16:20 14,1 C 93 % 1019,8 hPa 0,0 l/m 0,2 km/h (0 Bft) W-NW 292 13,0 C 14,5 C 0,0 km/h (0 Bft)
05.10.2013 16:25 14,2 C 93 % 1019,6 hPa 0,0 l/m 0,2 km/h (0 Bft) S-SW 202 13,1 C 14,5 C 0,0 km/h (0 Bft)
05.10.2013 16:30 14,2 C 93 % 1019,6 hPa 0,0 l/m 0,2 km/h (0 Bft) N-NO 22 13,1 C 14,6 C 1,6 km/h (1 Bft)
05.10.2013 16:35 14,2 C 94 % 1019,6 hPa 0,0 l/m 0,3 km/h (0 Bft) W 270 13,2 C 14,7 C 0,0 km/h (0 Bft)
05.10.2013 16:40 14,3 C 94 % 1019,6 hPa 0,0 l/m 0,3 km/h (0 Bft) O-NO 67 13,3 C 14,8 C 1,8 km/h (1 Bft)
05.10.2013 16:45 14,4 C 94 % 1019,4 hPa 0,0 l/m 0,5 km/h (0 Bft) NO 45 13,4 C 14,8 C 1,9 km/h (1 Bft)
05.10.2013 16:50 14,4 C 94 % 1019,4 hPa 0,0 l/m 0,8 km/h (0 Bft) S-SW 202 13,4 C 15,0 C 0,0 km/h (0 Bft)
05.10.2013 16:55 14,6 C 94 % 1019,4 hPa 0,0 l/m 0,5 km/h (0 Bft) SO 135 13,6 C 15,3 C 0,0 km/h (0 Bft)
05.10.2013 17:00 14,5 C 94 % 1019,4 hPa 0,0 l/m 0,0 km/h (0 Bft) O 90 13,5 C 15,5 C 0,0 km/h (0 Bft)
05.10.2013 17:05 14,5 C 94 % 1019,2 hPa 0,0 l/m 0,3 km/h (0 Bft) O 90 13,5 C 15,7 C 0,0 km/h (0 Bft)
05.10.2013 17:10 14,6 C 94 % 1019,2 hPa 0,0 l/m 0,3 km/h (0 Bft) O-NO 67 13,6 C 15,8 C 0,0 km/h (0 Bft)
05.10.2013 17:15 14,8 C 94 % 1019,2 hPa 0,0 l/m 0,0 km/h (0 Bft) NO 45 13,8 C 16,3 C 0,0 km/h (0 Bft)
05.10.2013 17:20 14,9 C 94 % 1019,2 hPa 0,0 l/m 0,0 km/h (0 Bft) N-NW 337 13,9 C 17,1 C 0,0 km/h (0 Bft)
05.10.2013 17:25 14,8 C 94 % 1019,1 hPa 0,0 l/m 0,0 km/h (0 Bft) NO 45 13,8 C 18,0 C 0,0 km/h (0 Bft)
05.10.2013 17:30 14,8 C 94 % 1019,1 hPa 0,0 l/m 0,0 km/h (0 Bft) NO 45 13,8 C 18,4 C 0,0 km/h (0 Bft)
05.10.2013 17:35 14,8 C 94 % 1019,1 hPa 0,0 l/m 0,0 km/h (0 Bft) O 90 13,8 C 18,5 C 0,0 km/h (0 Bft)
05.10.2013 17:40 14,7 C 94 % 1019,1 hPa 0,0 l/m 0,0 km/h (0 Bft) NO 45 13,7 C 18,1 C 0,0 km/h (0 Bft)
05.10.2013 17:45 14,6 C 94 % 1019,4 hPa 0,0 l/m 0,0 km/h (0 Bft) O 90 13,6 C 17,2 C 0,0 km/h (0 Bft)
05.10.2013 17:50 14,6 C 94 % 1019,4 hPa 0,0 l/m 0,0 km/h (0 Bft) O 90 13,6 C 16,6 C 0,0 km/h (0 Bft)
05.10.2013 17:55 14,5 C 94 % 1019,4 hPa 0,0 l/m 0,5 km/h (0 Bft) O-NO 67 13,5 C 16,1 C 0,0 km/h (0 Bft)
05.10.2013 18:00 14,4 C 94 % 1019,4 hPa 0,0 l/m 0,8 km/h (0 Bft) O 90 13,4 C 15,9 C 2,1 km/h (1 Bft)
05.10.2013 18:05 14,3 C 94 % 1019,4 hPa 0,0 l/m 0,8 km/h (0 Bft) O-NO 67 13,3 C 15,4 C 0,0 km/h (0 Bft)
05.10.2013 18:10 14,2 C 94 % 1019,4 hPa 0,0 l/m 0,6 km/h (0 Bft) NO 45 13,2 C 15,3 C 1,8 km/h (1 Bft)
05.10.2013 18:15 14,0 C 94 % 1019,4 hPa 0,0 l/m 0,5 km/h (0 Bft) O-SO 112 13,0 C 15,0 C 1,9 km/h (1 Bft)
05.10.2013 18:20 13,9 C 94 % 1019,4 hPa 0,0 l/m 0,3 km/h (0 Bft) O-SO 112 12,9 C 14,8 C 0,0 km/h (0 Bft)
05.10.2013 18:25 13,8 C 94 % 1019,4 hPa 0,0 l/m 1,0 km/h (0 Bft) NO 45 12,9 C 14,6 C 2,6 km/h (1 Bft)
05.10.2013 18:30 13,7 C 94 % 1019,4 hPa 0,0 l/m 1,6 km/h (1 Bft) O 90 12,8 C 14,5 C 2,6 km/h (1 Bft)
05.10.2013 18:35 13,6 C 94 % 1019,4 hPa 0,0 l/m 1,9 km/h (1 Bft) NO 45 12,7 C 14,2 C 0,0 km/h (0 Bft)
05.10.2013 18:40 13,5 C 94 % 1019,4 hPa 0,0 l/m 1,1 km/h (1 Bft) O-NO 67 12,6 C 14,1 C 0,0 km/h (0 Bft)
05.10.2013 18:45 13,5 C 94 % 1019,6 hPa 0,0 l/m 0,2 km/h (0 Bft) NO 45 12,6 C 14,0 C 0,0 km/h (0 Bft)
05.10.2013 18:50 13,5 C 94 % 1019,6 hPa 0,0 l/m 0,2 km/h (0 Bft) NO 45 12,6 C 13,9 C 2,1 km/h (1 Bft)
05.10.2013 18:55 13,3 C 94 % 1019,6 hPa 0,0 l/m 0,5 km/h (0 Bft) NO 45 12,4 C 13,8 C 2,4 km/h (1 Bft)
05.10.2013 19:00 13,2 C 94 % 1019,6 hPa 0,0 l/m 1,3 km/h (1 Bft) NO 45 12,3 C 13,6 C 3,5 km/h (1 Bft)
05.10.2013 19:05 13,0 C 94 % 1020,0 hPa 0,0 l/m 1,4 km/h (1 Bft) O-NO 67 12,1 C 13,4 C 3,1 km/h (1 Bft)
05.10.2013 19:10 12,9 C 95 % 1020,0 hPa 0,0 l/m 1,6 km/h (1 Bft) S-SO 157 12,1 C 13,3 C 4,5 km/h (1 Bft)
05.10.2013 19:15 12,9 C 95 % 1020,0 hPa 0,0 l/m 2,6 km/h (1 Bft) S-SO 157 12,1 C 13,1 C 4,8 km/h (1 Bft)
05.10.2013 19:20 12,7 C 95 % 1020,0 hPa 0,0 l/m 2,7 km/h (1 Bft) O 90 11,9 C 13,0 C 3,9 km/h (1 Bft)
05.10.2013 19:25 12,5 C 95 % 1020,2 hPa 0,0 l/m 1,4 km/h (1 Bft) NO 45 11,7 C 12,9 C 1,9 km/h (1 Bft)
05.10.2013 19:30 12,6 C 95 % 1020,2 hPa 0,0 l/m 1,8 km/h (1 Bft) O-NO 67 11,8 C 12,8 C 3,4 km/h (1 Bft)
05.10.2013 19:35 12,6 C 95 % 1020,2 hPa 0,0 l/m 2,1 km/h (1 Bft) NO 45 11,8 C 12,9 C 0,0 km/h (0 Bft)
05.10.2013 19:40 12,6 C 95 % 1020,2 hPa 0,0 l/m 2,3 km/h (1 Bft) S 180 11,8 C 12,9 C 4,7 km/h (1 Bft)
05.10.2013 19:45 12,5 C 95 % 1020,4 hPa 0,0 l/m 1,6 km/h (1 Bft) O 90 11,7 C 12,8 C 0,0 km/h (0 Bft)
05.10.2013 19:50 12,4 C 95 % 1020,4 hPa 0,0 l/m 1,3 km/h (1 Bft) O-SO 112 11,6 C 12,6 C 3,1 km/h (1 Bft)
05.10.2013 19:55 12,2 C 95 % 1020,4 hPa 0,0 l/m 1,6 km/h (1 Bft) O 90 11,4 C 12,4 C 0,0 km/h (0 Bft)
05.10.2013 20:00 12,1 C 95 % 1020,4 hPa 0,0 l/m 2,1 km/h (1 Bft) O 90 11,3 C 12,3 C 4,2 km/h (1 Bft)
05.10.2013 20:05 11,9 C 95 % 1020,2 hPa 0,0 l/m 2,4 km/h (1 Bft) O 90 11,1 C 12,2 C 1,6 km/h (1 Bft)
05.10.2013 20:10 11,6 C 95 % 1020,2 hPa 0,0 l/m 2,4 km/h (1 Bft) O-SO 112 10,8 C 12,0 C 4,5 km/h (1 Bft)
05.10.2013 20:15 11,5 C 95 % 1020,2 hPa 0,0 l/m 2,7 km/h (1 Bft) NO 45 10,7 C 11,9 C 4,8 km/h (1 Bft)
05.10.2013 20:20 11,3 C 95 % 1020,2 hPa 0,0 l/m 3,1 km/h (1 Bft) NO 45 10,5 C 11,7 C 4,3 km/h (1 Bft)
05.10.2013 20:25 11,1 C 95 % 1020,5 hPa 0,0 l/m 1,3 km/h (1 Bft) NO 45 10,3 C 11,5 C 2,1 km/h (1 Bft)
05.10.2013 20:30 10,9 C 95 % 1020,5 hPa 0,0 l/m 1,0 km/h (0 Bft) NO 45 10,1 C 11,3 C 2,6 km/h (1 Bft)
05.10.2013 20:35 10,9 C 95 % 1020,5 hPa 0,0 l/m 1,0 km/h (0 Bft) NO 45 10,1 C 11,0 C 2,6 km/h (1 Bft)
05.10.2013 20:40 10,7 C 95 % 1020,5 hPa 0,0 l/m 1,3 km/h (1 Bft) NO 45 9,9 C 11,0 C 2,4 km/h (1 Bft)
05.10.2013 20:45 10,7 C 95 % 1020,5 hPa 0,0 l/m 2,4 km/h (1 Bft) O 90 9,9 C 10,9 C 3,1 km/h (1 Bft)
05.10.2013 20:50 10,7 C 95 % 1020,5 hPa 0,0 l/m 2,4 km/h (1 Bft) NO 45 9,9 C 10,8 C 0,0 km/h (0 Bft)
05.10.2013 20:55 10,5 C 95 % 1020,5 hPa 0,0 l/m 1,4 km/h (1 Bft) O 90 9,7 C 10,7 C 2,1 km/h (1 Bft)
05.10.2013 21:00 10,4 C 95 % 1020,5 hPa 0,0 l/m 0,8 km/h (0 Bft) O 90 9,6 C 10,5 C 2,4 km/h (1 Bft)
05.10.2013 21:05 10,4 C 95 % 1020,7 hPa 0,0 l/m 1,3 km/h (1 Bft) NO 45 9,6 C 10,4 C 3,4 km/h (1 Bft)
05.10.2013 21:10 10,4 C 95 % 1020,7 hPa 0,0 l/m 2,3 km/h (1 Bft) NO 45 9,6 C 10,5 C 2,1 km/h (1 Bft)
05.10.2013 21:15 10,3 C 95 % 1020,7 hPa 0,0 l/m 2,9 km/h (1 Bft) O-NO 67 9,5 C 10,4 C 2,7 km/h (1 Bft)
05.10.2013 21:20 10,3 C 95 % 1020,7 hPa 0,0 l/m 2,9 km/h (1 Bft) NO 45 9,5 C 10,5 C 3,4 km/h (1 Bft)
05.10.2013 21:25 10,2 C 95 % 1020,7 hPa 0,0 l/m 2,7 km/h (1 Bft) O 90 9,4 C 10,5 C 0,0 km/h (0 Bft)
05.10.2013 21:30 10,1 C 95 % 1020,7 hPa 0,0 l/m 1,9 km/h (1 Bft) S 180 9,3 C 10,4 C 0,0 km/h (0 Bft)
05.10.2013 21:35 10,0 C 95 % 1020,7 hPa 0,0 l/m 0,8 km/h (0 Bft) S 180 9,2 C 10,3 C 2,6 km/h (1 Bft)
05.10.2013 21:40 9,9 C 95 % 1020,7 hPa 0,0 l/m 1,0 km/h (0 Bft) SO 135 9,1 C 10,3 C 3,5 km/h (1 Bft)
05.10.2013 21:45 10,0 C 95 % 1020,7 hPa 0,0 l/m 1,4 km/h (1 Bft) S 180 9,2 C 10,3 C 4,5 km/h (1 Bft)
05.10.2013 21:50 10,0 C 95 % 1020,7 hPa 0,0 l/m 1,3 km/h (1 Bft) S 180 9,2 C 10,3 C 0,0 km/h (0 Bft)
05.10.2013 21:55 9,8 C 95 % 1020,7 hPa 0,0 l/m 0,8 km/h (0 Bft) S-SO 157 9,0 C 10,3 C 0,0 km/h (0 Bft)
05.10.2013 22:00 9,8 C 95 % 1020,7 hPa 0,0 l/m 0,3 km/h (0 Bft) S 180 9,0 C 10,2 C 3,5 km/h (1 Bft)
05.10.2013 22:05 9,6 C 95 % 1020,8 hPa 0,0 l/m 0,3 km/h (0 Bft) SO 135 8,8 C 10,0 C 0,0 km/h (0 Bft)
05.10.2013 22:10 9,7 C 95 % 1020,8 hPa 0,0 l/m 0,3 km/h (0 Bft) S-SO 157 8,9 C 10,0 C 0,0 km/h (0 Bft)
05.10.2013 22:15 9,6 C 95 % 1020,8 hPa 0,0 l/m 0,5 km/h (0 Bft) SO 135 8,8 C 10,0 C 2,6 km/h (1 Bft)
05.10.2013 22:20 9,4 C 95 % 1020,8 hPa 0,0 l/m 1,1 km/h (1 Bft) S 180 8,6 C 10,1 C 2,6 km/h (1 Bft)
05.10.2013 22:25 9,4 C 95 % 1020,9 hPa 0,0 l/m 2,9 km/h (1 Bft) S 180 8,6 C 10,1 C 2,7 km/h (1 Bft)
05.10.2013 22:30 9,4 C 95 % 1020,9 hPa 0,0 l/m 3,7 km/h (1 Bft) S-SO 157 8,6 C 10,3 C 5,6 km/h (1 Bft)
05.10.2013 22:35 9,3 C 95 % 1020,9 hPa 0,0 l/m 4,7 km/h (1 Bft) S-SO 157 8,5 C 10,2 C 5,0 km/h (1 Bft)
05.10.2013 22:40 9,4 C 95 % 1020,9 hPa 0,0 l/m 5,0 km/h (1 Bft) S-SO 157 8,6 C 10,1 C 5,0 km/h (1 Bft)
05.10.2013 22:45 9,4 C 95 % 1020,9 hPa 0,0 l/m 4,8 km/h (1 Bft) S-SO 157 8,6 C 10,1 C 5,8 km/h (2 Bft)
05.10.2013 22:50 9,4 C 95 % 1020,9 hPa 0,0 l/m 5,1 km/h (1 Bft) W-SW 247 8,6 C 10,2 C 7,9 km/h (2 Bft)
05.10.2013 22:55 9,4 C 95 % 1020,9 hPa 0,0 l/m 4,7 km/h (1 Bft) S 180 8,6 C 10,3 C 1,9 km/h (1 Bft)
05.10.2013 23:00 9,3 C 95 % 1020,9 hPa 0,0 l/m 3,9 km/h (1 Bft) O-SO 112 8,5 C 10,3 C 2,9 km/h (1 Bft)
05.10.2013 23:05 9,3 C 95 % 1021,0 hPa 0,0 l/m 1,9 km/h (1 Bft) NO 45 8,5 C 10,2 C 1,9 km/h (1 Bft)
05.10.2013 23:10 9,6 C 95 % 1021,0 hPa 0,0 l/m 1,0 km/h (0 Bft) SO 135 8,8 C 10,0 C 4,5 km/h (1 Bft)
05.10.2013 23:15 9,7 C 96 % 1021,0 hPa 0,0 l/m 0,8 km/h (0 Bft) O-NO 67 9,1 C 10,0 C 1,9 km/h (1 Bft)
05.10.2013 23:20 9,7 C 96 % 1021,0 hPa 0,0 l/m 1,1 km/h (1 Bft) S 180 9,1 C 10,0 C 2,9 km/h (1 Bft)
05.10.2013 23:25 9,6 C 96 % 1021,1 hPa 0,0 l/m 1,0 km/h (0 Bft) NO 45 9,0 C 10,1 C 0,0 km/h (0 Bft)
05.10.2013 23:30 9,5 C 95 % 1021,1 hPa 0,0 l/m 1,0 km/h (0 Bft) S-SO 157 8,7 C 10,0 C 3,4 km/h (1 Bft)
05.10.2013 23:35 9,8 C 96 % 1021,1 hPa 0,0 l/m 1,3 km/h (1 Bft) O-NO 67 9,2 C 10,0 C 2,9 km/h (1 Bft)
05.10.2013 23:40 9,8 C 96 % 1021,1 hPa 0,0 l/m 2,3 km/h (1 Bft) O 90 9,2 C 10,0 C 4,5 km/h (1 Bft)
05.10.2013 23:45 9,8 C 96 % 1021,1 hPa 0,0 l/m 2,9 km/h (1 Bft) O 90 9,2 C 10,0 C 3,5 km/h (1 Bft)
05.10.2013 23:50 9,7 C 96 % 1021,1 hPa 0,0 l/m 2,1 km/h (1 Bft) N 360 9,1 C 9,9 C 2,1 km/h (1 Bft)
05.10.2013 23:55 9,8 C 96 % 1021,1 hPa 0,0 l/m 1,4 km/h (1 Bft) S-SO 157 9,2 C 9,9 C 4,3 km/h (1 Bft)
_ Min-Zeit 23:05 16:30 07:40 - 17:50 - - 23:05 09:35 23:25
Minimum _ 9,3 C 93 % 1016,7 hPa - 0,0 km/h (0 Bft) - - 8,5 C 9,0 C 0,0 km/h (0 Bft)
_ Max-Zeit 14:45 23:55 23:55 16:05 09:35 - - 14:45 17:35 09:35
Maximum _ 15,1 C 96 % 1021,1 hPa 0,7 l/m 13,2 km/h
S-SO (3 Bft)
- - 14,1 C 18,5 C 29,0 km/h
S-SO (5 Bft)
Durchschnitt _ 12,3 C 95 % 1018,8 hPa #7,6 l/m 2,4 km/h (1 Bft) S - 11,5 C 12,6 C 3,5 km/h (1 Bft)